This demonstration page uses our WeatherBlox Daily Observations layout. Learn more.

Left ArrowRight Arrow

38.20091, -84.87328

Hourly Observations for June 21, 2021

Temp ( °F °C ) Dew Point ( °F °C ) Humidity (%) Winds ( mph kmh ) Pressure ( in mb ) Visibility ( mi km ) Precip ( " mm )
12:53 am 00:53 Clear 78 25.6 69 20.6 74 74 S 9 15 29.72 1006 10 16 0.00 0.00
1:53 am 01:53 Clear 77 25 69 20.6 77 77 SSW 9 15 29.70 1006 10 16 0.00 0.00
2:53 am 02:53 Partly Cloudy 78 25.6 69 20.6 74 74 SW 8 13 29.71 1006 10 16 0.00 0.00
3:53 am 03:53 Mostly Clear 78 25.6 69 20.6 74 74 SSW 12 19 29.70 1006 10 16 0.00 0.00
4:53 am 04:53 Mostly Clear 77 25 69 20.6 77 77 SSW 10 17 29.70 1006 10 16 0.00 0.00
5:53 am 05:53 Clear 77 25 70 21.1 79 79 SSW 12 19 29.70 1006 10 16 0.00 0.00
6:53 am 06:53 Sunny 77 25 70 21.1 79 79 SSW 13 20 29.70 1006 10 16 0.00 0.00
7:53 am 07:53 Sunny 78 25.6 70 21.1 76 76 SSW 16 26 29.68 1005 10 16 0.00 0.00
8:53 am 08:53 Sunny 80 26.7 71 21.7 74 74 SSW 14 22 29.69 1005 10 16 0.00 0.00
9:53 am 09:53 Sunny 82 27.8 72 22.2 72 72 SW 16 26 29.72 1007 10 16 0.00 0.00
10:53 am 10:53 Mostly Sunny 85 29.4 70 21.1 61 61 WSW 12 19 29.73 1007 10 16 0.00 0.00
11:53 am 11:53 Mostly Cloudy 83 28.3 71 21.7 67 67 WSW 9 15 29.74 1007 10 16 0.00 0.00
12:45 pm 12:45 Partly Cloudy with Nearby Thunderstorms 82 27.8 71 21.7 69 69 W 7 11 29.69 1005 10 16 0.00 0.00
12:53 pm 12:53 Partly Cloudy with Nearby Thunderstorms 82 27.8 72 22.2 72 72 WSW 8 13 29.70 1006 10 16 0.00 0.00
1:53 pm 13:53 Cloudy with Rain 74 23.3 71 21.7 91 91 SW 10 17 29.70 1006 3 4 0.07 1.78
2:00 pm 14:00 Cloudy with Light Rain 74 23.3 71 21.7 91 91 SW 9 15 29.69 1005 8 13 0.01 0.25
2:53 pm 14:53 Cloudy with Light Rain 72 22.2 70 21.1 94 94 SSW 9 15 29.71 1006 10 16 0.02 0.51
3:53 pm 15:53 Mostly Cloudy 72 22.2 70 21.1 94 94 SW 8 13 29.73 1007 10 16 0.01 0.25
4:20 pm 16:20 Cloudy with Nearby Thunderstorms 72 22.2 70 21.1 94 94 SSW 8 13 29.73 1007 10 16 0.01 0.25
4:30 pm 16:30 Cloudy with Nearby Thunderstorms 72 22.2 70 21.1 94 94 SSW 8 13 29.73 1007 8 13 0.01 0.25
4:40 pm 16:40 Cloudy with Strong Thunderstorms 72 22.2 70 21.1 94 94 W 9 15 29.76 1008 2 3 0.08 2.03
4:44 pm 16:44 Cloudy with Strong Thunderstorms 71 21.7 70 21.1 96 96 WSW 8 13 29.76 1008 1 2 0.12 3.05
4:50 pm 16:50 Cloudy with Strong Thunderstorms 72 22 70 21 94 94 W 6 9 29.75 1007 1 1 0.19 4.83
4:53 pm 16:53 Cloudy with Strong Thunderstorms 71 21.7 70 21.1 96 96 W 6 9 29.75 1007 1 1 0.22 5.59
5:00 pm 17:00 Cloudy with Strong Thunderstorms 71 21.7 70 21.1 96 96 WSW 9 15 29.76 1008 1 1 0.12 3.05
5:10 pm 17:10 Cloudy with Strong Thunderstorms 71 21.7 70 21.1 96 96 WSW 8 13 29.76 1008 1 1 0.27 6.86
5:14 pm 17:14 Cloudy with Strong Thunderstorms 71 21.7 70 21.1 96 96 WSW 7 11 29.77 1008 1 2 0.30 7.62
5:28 pm 17:28 Cloudy with Strong Thunderstorms 71 21.7 70 21.1 96 96 SW 12 19 29.78 1008 2 3 0.37 9.40
5:33 pm 17:33 Cloudy with Strong Thunderstorms 71 21.7 70 21.1 96 96 WSW 12 19 29.79 1009 1 2 0.52 13.21
5:40 pm 17:40 Cloudy with Strong Thunderstorms 71 21.7 70 21.1 96 96 WSW 9 15 29.79 1009 1 1 0.58 14.73
5:43 pm 17:43 Cloudy with Thunderstorms 71 21.7 70 21.1 96 96 WSW 13 20 29.79 1009 1 2 0.59 14.99
5:45 pm 17:45 Cloudy with Thunderstorms 72 22.2 70 21.1 94 94 WSW 12 19 29.79 1009 2 3 0.60 15.24
5:53 pm 17:53 Cloudy with Rain 72 22.2 70 21.1 94 94 WNW 6 9 29.77 1008 2 3 0.64 16.26
6:07 pm 18:07 Cloudy with Light Rain 72 22.2 70 21.1 94 94 NNW 13 20 29.71 1006 5 8 0.02 0.51
6:21 pm 18:21 Cloudy with Light Rain 71 21.7 68 20 90 90 NW 8 13 29.70 1006 10 16 0.03 0.76
6:53 pm 18:53 Mostly Cloudy 71 21.7 68 20 90 90 WSW 7 11 29.75 1007 10 16 0.03 0.76
7:50 pm 19:50 Mostly Cloudy 70 21 68 20 94 94 WSW 6 9 29.77 1008 8 13 0.00 0.00
7:53 pm 19:53 Mostly Cloudy 70 21.1 68 20 93 93 VRB 3 6 29.76 1008 8 13 0.00 0.00
8:20 pm 20:20 Partly Cloudy 70 21.1 67 19.4 90 90 WSW 6 9 29.77 1008 8 13 0.00 0.00
8:51 pm 20:51 Cloudy 70 21 66 19 88 88 W 6 9 29.80 1009 7 11 0.00 0.00
8:53 pm 20:53 Cloudy with Light Rain 69 20.6 67 19.4 93 93 WSW 6 9 29.79 1009 6 10 0.00 0.00
9:23 pm 21:23 Cloudy with Rain 68 20 64 17.8 87 87 NW 10 17 29.82 1010 4 6 0.04 1.02
9:30 pm 21:30 Cloudy with Light Rain 67 19.4 64 17.8 91 91 NNW 8 13 29.82 1010 6 10 0.04 1.02
9:53 pm 21:53 Cloudy with Light Rain 67 19.4 63 17.2 87 87 NW 7 11 29.83 1010 10 16 0.05 1.27
10:53 pm 22:53 Cloudy 66 18.9 63 17.2 90 90 WNW 5 7 29.85 1011 10 16 0.00 0.00
11:53 pm 23:53 Cloudy 65 18.3 62 16.7 90 90 WNW 3 6 29.86 1011 10 16 0.00 0.00

Powered by AerisWeather